Weather History for Robstown, TX

Change the Weather History Date:

Thursday, November 8, 2012

  Actual Average (KCRP) Record (KCRP)
Temperature  
Mean Temperature 72 °F 68 °F  
Max Temperature 86 °F 78 °F 93 °F (1989)
Min Temperature 58 °F 59 °F 36 °F (1943)
Degree Days  
Heating Degree Days 0 2  
Month to date heating degree days 11  
Since 1 July heating degree days 21  
Cooling Degree Days 7 5  
Month to date cooling degree days 47  
Year to date cooling degree days 3398  
Growing Degree Days 22 (Base 50)    
Moisture  
Dew Point 60 °F    
Average Humidity 67    
Maximum Humidity 96    
Minimum Humidity 38    
Precipitation  
Precipitation 0.03 in 0.08 in 1.47 in (1987)
Month to date precipitation 0.68  
Year to date precipitation 28.64  
Snow  
Snow 0.00 in - - ()
Month to date snowfall  
Since 1 July snowfall  
Since 1 September snowfall  
Snow Depth -    
Sea Level Pressure  
Sea Level Pressure 30.07 in    
Wind  
Wind Speed 8 mph (SSE)    
Max Wind Speed 24 mph    
Max Gust Speed 29 mph    
Visibility 10 miles    
Events      
T = Trace of Precipitation, MM = Missing Value Source: NWS Daily Summary

Daily Weather History Graph

Daily Weather History Graph

Search for Another Location

Airport:

Trip Planner

Search our weather history database for the weather conditions in past years. The results will help you decide how hot, cold, wet, or windy it might be!

Date:

Astronomy

Nov. 08, 2012 Rise Set
Actual Time 6:47 AM CST 5:41 PM CST
Civil Twilight 6:22 AM CST 6:06 PM CST
Nautical Twilight 5:54 AM CST 6:34 PM CST
Astronomical Twilight 5:26 AM CST 7:01 PM CST
Moon 1:13 AM CST (11/8) 1:57 PM CST (11/8)
Length of Visible Light 11h 43m
Length of Day
10h 54m
Waning Crescent, 32% of the Moon is Illuminated
Nov 8
Waning Crescent
Nov 13
New
Nov 20
First Quarter
Nov 28
Full
Dec 6
Last Quarter

Hourly Weather History & Observations

Time (CST) Temp. Heat Index Dew Point Humidity Pressure Visibility Wind Dir Wind Speed Gust Speed Precip Events Conditions
12:15 AM 64.9 °F - 57.7 °F 77% 30.09 in 10.0 mi South 4.6 mph - N/A   Clear
12:35 AM 64.4 °F - 58.1 °F 80% 30.09 in 10.0 mi SSE 3.5 mph - N/A   Clear
12:55 AM 64.2 °F - 58.1 °F 80% 30.09 in 10.0 mi South 4.6 mph - N/A   Clear
1:15 AM 62.4 °F - 56.3 °F 80% 30.09 in 10.0 mi South 4.6 mph - N/A   Clear
1:35 AM 62.8 °F - 58.1 °F 85% 30.09 in 10.0 mi South 5.8 mph - N/A   Clear
1:55 AM 61.5 °F - 56.7 °F 84% 30.09 in 10.0 mi South 5.8 mph - N/A   Clear
2:15 AM 61.2 °F - 56.3 °F 84% 30.08 in 10.0 mi South 3.5 mph - N/A   Clear
2:35 AM 60.8 °F - 56.1 °F 85% 30.08 in 10.0 mi South 4.6 mph - N/A   Clear
2:55 AM 60.3 °F - 56.1 °F 86% 30.08 in 10.0 mi South 3.5 mph - N/A   Clear
3:15 AM 59.9 °F - 56.5 °F 88% 30.08 in 10.0 mi Calm Calm - N/A   Clear
3:35 AM 60.4 °F - 57.9 °F 91% 30.08 in 10.0 mi Calm Calm - N/A   Clear
3:55 AM 59.9 °F - 57.4 °F 91% 30.07 in 10.0 mi Calm Calm - N/A   Clear
4:15 AM 60.3 °F - 58.5 °F 94% 30.07 in 10.0 mi Calm Calm - N/A   Clear
4:35 AM 60.8 °F - 57.9 °F 90% 30.08 in 10.0 mi South 3.5 mph - N/A   Clear
4:55 AM 60.4 °F - 57.6 °F 90% 30.08 in 10.0 mi Calm Calm - N/A   Clear
5:15 AM 60.1 °F - 57.4 °F 91% 30.09 in 10.0 mi Calm Calm - N/A   Clear
5:35 AM 59.9 °F - 57.7 °F 93% 30.09 in 10.0 mi Calm Calm - N/A   Clear
6:15 AM 59.2 °F - 57.2 °F 93% 30.09 in 10.0 mi Calm Calm - N/A   Clear
6:35 AM 58.5 °F - 56.8 °F 94% 30.10 in 5.0 mi Calm Calm - N/A   Clear
6:55 AM 58.6 °F - 57.2 °F 95% 30.10 in 2.5 mi Calm Calm - N/A   Clear
7:15 AM 59.4 °F - 58.1 °F 96% 30.11 in 2.0 mi Calm Calm - N/A   Clear
7:35 AM 60.1 °F - 58.5 °F 94% 30.12 in 10.0 mi Calm Calm - N/A   Clear
7:55 AM 65.5 °F - 61.0 °F 85% 30.12 in 10.0 mi South 3.5 mph - N/A   Clear
8:15 AM 68.9 °F - 61.3 °F 77% 30.13 in 10.0 mi South 5.8 mph - N/A   Clear
8:35 AM 72.7 °F - 62.1 °F 69% 30.14 in 10.0 mi South 8.1 mph - N/A   Clear
8:55 AM 76.6 °F - 62.6 °F 62% 30.14 in 10.0 mi South 15.0 mph - N/A   Clear
9:15 AM 78.8 °F - 62.6 °F 57% 30.15 in 10.0 mi South 17.3 mph - N/A   Clear
9:35 AM - - - N/A% - - North - - N/A   Unknown
9:55 AM - - - N/A% - - North - - N/A   Unknown
10:35 AM 82.8 °F 83.4 °F 61.7 °F 49% 30.14 in 10.0 mi SSE 19.6 mph - 0.03 in   Clear
10:55 AM 84.0 °F 84.4 °F 61.0 °F 46% 30.13 in 10.0 mi SSE 20.7 mph 25.3 mph N/A   Clear
11:15 AM 84.9 °F 85.0 °F 60.6 °F 44% 30.12 in 10.0 mi SSE 17.3 mph 24.2 mph N/A   Scattered Clouds
11:35 AM 85.5 °F 85.0 °F 59.5 °F 41% 30.11 in 10.0 mi SSE 13.8 mph 24.2 mph N/A   Scattered Clouds
11:55 AM 86.0 °F 85.4 °F 59.2 °F 40% 30.10 in 10.0 mi SSE 17.3 mph 26.5 mph N/A   Clear
12:15 PM 86.0 °F 85.4 °F 59.0 °F 40% 30.09 in 10.0 mi SSE 21.9 mph - N/A   Clear
12:35 PM 86.4 °F 85.4 °F 57.7 °F 38% 30.07 in 10.0 mi SSE 19.6 mph 26.5 mph N/A   Clear
12:55 PM 86.5 °F 86.1 °F 59.9 °F 40% 30.06 in 10.0 mi SSE 18.4 mph 26.5 mph N/A   Clear
1:15 PM 86.4 °F 86.1 °F 60.3 °F 41% 30.05 in 10.0 mi SE 20.7 mph 24.2 mph N/A   Clear
1:35 PM 86.4 °F 85.9 °F 59.7 °F 40% 30.04 in 10.0 mi SSE 18.4 mph 24.2 mph N/A   Clear
1:55 PM 86.5 °F 86.1 °F 59.7 °F 40% 30.03 in 10.0 mi SE 17.3 mph 25.3 mph N/A   Clear
2:15 PM 86.2 °F 86.1 °F 60.6 °F 42% 30.03 in 10.0 mi SSE 19.6 mph 24.2 mph N/A   Clear
2:35 PM 86.9 °F 86.7 °F 60.3 °F 41% 30.02 in 10.0 mi SE 19.6 mph 24.2 mph N/A   Clear
2:55 PM 86.0 °F 85.7 °F 60.1 °F 41% 30.02 in 10.0 mi SE 20.7 mph 27.6 mph N/A   Clear
3:15 PM 85.6 °F 85.7 °F 60.8 °F 43% 30.02 in 10.0 mi SSE 20.7 mph 28.8 mph N/A   Clear
3:35 PM 85.1 °F 85.2 °F 61.0 °F 44% 30.02 in 10.0 mi SE 19.6 mph 28.8 mph N/A   Clear
3:55 PM 84.2 °F 84.6 °F 61.5 °F 46% 30.02 in 10.0 mi SSE 20.7 mph - N/A   Clear
4:15 PM 83.5 °F 84.1 °F 61.7 °F 48% 30.02 in 10.0 mi SE 24.2 mph 27.6 mph N/A   Clear
4:35 PM 82.9 °F 83.7 °F 61.7 °F 49% 30.02 in 10.0 mi SE 21.9 mph 26.5 mph N/A   Clear
4:55 PM 81.9 °F 82.6 °F 61.7 °F 50% 30.02 in 10.0 mi SE 21.9 mph 27.6 mph N/A   Clear
5:15 PM 80.8 °F 81.9 °F 62.1 °F 53% 30.02 in 10.0 mi SE 23.0 mph 26.5 mph N/A   Clear
5:35 PM 79.9 °F - 63.0 °F 56% 30.03 in 10.0 mi SE 21.9 mph 27.6 mph N/A   Clear
5:55 PM 79.0 °F - 63.1 °F 58% 30.03 in 10.0 mi SE 17.3 mph 27.6 mph N/A   Clear
6:15 PM 78.3 °F - 63.9 °F 61% 30.03 in 10.0 mi SE 19.6 mph - N/A   Clear
6:35 PM 77.7 °F - 63.9 °F 62% 30.04 in 10.0 mi SE 16.1 mph - N/A   Clear
6:55 PM 77.2 °F - 64.2 °F 64% 30.04 in 10.0 mi SE 17.3 mph - N/A   Clear
7:15 PM 76.5 °F - 64.4 °F 66% 30.05 in 10.0 mi SE 15.0 mph - N/A   Clear
7:35 PM 75.9 °F - 63.9 °F 66% 30.06 in 10.0 mi SE 13.8 mph - N/A   Clear
7:55 PM 75.2 °F - 63.5 °F 67% 30.06 in 10.0 mi SE 12.7 mph - N/A   Clear
8:15 PM 74.7 °F - 63.5 °F 68% 30.06 in 10.0 mi SE 12.7 mph - N/A   Clear
8:35 PM 74.3 °F - 63.5 °F 69% 30.06 in 10.0 mi SE 10.4 mph - N/A   Clear
8:55 PM 73.4 °F - 63.5 °F 71% 30.07 in 10.0 mi SE 9.2 mph - N/A   Clear
9:15 PM 72.9 °F - 63.7 °F 73% 30.07 in 10.0 mi SE 9.2 mph - N/A   Clear
9:35 PM 72.7 °F - 63.5 °F 73% 30.07 in 10.0 mi SE 9.2 mph - N/A   Clear
9:55 PM 72.1 °F - 63.1 °F 73% 30.07 in 10.0 mi SE 8.1 mph - N/A   Clear
10:15 PM 71.6 °F - 63.0 °F 74% 30.07 in 10.0 mi SE 6.9 mph - N/A   Clear
10:35 PM 71.4 °F - 63.0 °F 75% 30.07 in 10.0 mi SE 8.1 mph - N/A   Clear
10:55 PM 71.6 °F - 63.0 °F 74% 30.06 in 10.0 mi SE 9.2 mph - N/A   Clear
11:15 PM 71.6 °F - 63.3 °F 75% 30.06 in 10.0 mi SE 8.1 mph - N/A   Clear
11:35 PM 71.1 °F - 63.3 °F 76% 30.06 in 10.0 mi SSE 8.1 mph - N/A   Clear
11:55 PM 71.1 °F - 63.5 °F 77% 30.06 in 10.0 mi SSE 8.1 mph - N/A   Clear